When you browse on this site, cookies collect data to enhance your experience and personalize the content and advertising you see.
Visit our Privacy Policy to learn more. By continuing to use the site, you agree to this use of cookies and data.

Meteo pe oră la Dziarny

Astăzi, 26 Septembrie, Sâmbătă

Timp Temperatura Precipitaţii Vânt Presiune Umiditate
00:00 +17°C° 0.5 mm 2 m/s 738 mmHg 92%
01:00 +17°C° 0 mm 3 m/s 738 mmHg 92%
02:00 +17°C° 0.2 mm 3 m/s 737 mmHg 91%
03:00 +17°C° 0.2 mm 4 m/s 737 mmHg 89%
04:00 +17°C° 0.2 mm 4 m/s 737 mmHg 88%
05:00 +18°C° 0.1 mm 4 m/s 736 mmHg 86%
06:00 +17°C° 0.1 mm 5 m/s 736 mmHg 85%
07:00 +17°C° 0 mm 5 m/s 736 mmHg 82%
08:00 +17°C° 0 mm 5 m/s 736 mmHg 78%
09:00 +19°C° 0 mm 6 m/s 736 mmHg 75%
10:00 +19°C° 0 mm 6 m/s 736 mmHg 71%
11:00 +21°C° 0 mm 7 m/s 736 mmHg 67%
12:00 +22°C° 0 mm 7 m/s 736 mmHg 62%
13:00 +24°C° 0 mm 6 m/s 736 mmHg 60%
14:00 +23°C° 0.3 mm 6 m/s 736 mmHg 64%
15:00 +23°C° 0.3 mm 5 m/s 736 mmHg 68%
16:00 +22°C° 0.3 mm 5 m/s 736 mmHg 72%
17:00 +21°C° 1.3 mm 5 m/s 737 mmHg 79%
18:00 +20°C° 1.3 mm 4 m/s 737 mmHg 85%
19:00 +19°C° 1.3 mm 4 m/s 738 mmHg 91%
20:00 +18°C° 1.6 mm 4 m/s 738 mmHg 92%
21:00 +18°C° 1.6 mm 3 m/s 738 mmHg 92%
22:00 +18°C° 1.6 mm 2 m/s 739 mmHg 93%
23:00 +18°C° 0.7 mm 3 m/s 739 mmHg 92%

Mâine, 27 Septembrie, Duminică

Timp Temperatura Precipitaţii Vânt Presiune Umiditate
00:00 +18°C° 0.7 mm 3 m/s 739 mmHg 91%
01:00 +18°C° 0.7 mm 4 m/s 739 mmHg 89%
02:00 +17°C° 0.1 mm 4 m/s 739 mmHg 87%
03:00 +17°C° 0.1 mm 4 m/s 739 mmHg 85%
04:00 +17°C° 0.1 mm 4 m/s 739 mmHg 83%
05:00 +16°C° 0.1 mm 5 m/s 739 mmHg 81%
06:00 +16°C° 0.1 mm 5 m/s 739 mmHg 78%
07:00 +17°C° 0.1 mm 6 m/s 739 mmHg 76%
08:00 +17°C° 0.3 mm 6 m/s 739 mmHg 75%
09:00 +17°C° 0.3 mm 6 m/s 739 mmHg 74%
10:00 +17°C° 0.3 mm 6 m/s 739 mmHg 74%
11:00 +17°C° 0.1 mm 6 m/s 740 mmHg 74%
12:00 +17°C° 0.1 mm 5 m/s 740 mmHg 73%
13:00 +17°C° 0.1 mm 5 m/s 741 mmHg 73%
14:00 +16°C° 0.2 mm 5 m/s 741 mmHg 75%
15:00 +17°C° 0.2 mm 4 m/s 741 mmHg 77%
16:00 +15°C° 0.2 mm 4 m/s 742 mmHg 79%
17:00 +14°C° 0.2 mm 4 m/s 742 mmHg 83%
18:00 +12°C° 0.2 mm 4 m/s 742 mmHg 87%
19:00 +11°C° 0.2 mm 4 m/s 743 mmHg 91%
20:00 +11°C° 0 mm 4 m/s 744 mmHg 90%
21:00 +10°C° 0 mm 4 m/s 744 mmHg 90%
22:00 +9°C° 0 mm 5 m/s 745 mmHg 89%
23:00 +9°C° 0 mm 5 m/s 745 mmHg 88%

Poimâine, 28 Septembrie, Luni

Timp Temperatura Precipitaţii Vânt Presiune Umiditate
00:00 +9°C° 0 mm 5 m/s 746 mmHg 87%
01:00 +9°C° 0 mm 5 m/s 746 mmHg 86%
02:00 +9°C° 0 mm 5 m/s 746 mmHg 86%
03:00 +9°C° 0 mm 5 m/s 747 mmHg 85%
04:00 +10°C° 0 mm 5 m/s 747 mmHg 85%
05:00 +10°C° 0 mm 5 m/s 747 mmHg 84%
06:00 +10°C° 0 mm 5 m/s 748 mmHg 84%
07:00 +10°C° 0 mm 5 m/s 748 mmHg 83%
08:00 +12°C° 0 mm 5 m/s 749 mmHg 77%
09:00 +13°C° 0 mm 5 m/s 749 mmHg 70%
10:00 +14°C° 0 mm 5 m/s 749 mmHg 63%
11:00 +15°C° 0 mm 5 m/s 750 mmHg 60%
12:00 +16°C° 0 mm 5 m/s 750 mmHg 56%
13:00 +17°C° 0 mm 5 m/s 750 mmHg 53%
14:00 +18°C° 0 mm 4 m/s 750 mmHg 54%
15:00 +18°C° 0 mm 3 m/s 750 mmHg 55%
16:00 +17°C° 0 mm 2 m/s 750 mmHg 56%
17:00 +16°C° 0 mm 2 m/s 750 mmHg 60%
18:00 +15°C° 0 mm 2 m/s 750 mmHg 63%
19:00 +14°C° 0 mm 2 m/s 750 mmHg 67%
20:00 +14°C° 0 mm 2 m/s 750 mmHg 66%
21:00 +14°C° 0 mm 2 m/s 751 mmHg 66%
22:00 +14°C° 0 mm 2 m/s 751 mmHg 65%
23:00 +14°C° 0 mm 2 m/s 751 mmHg 66%

29 Septembrie, Marţi

Timp Temperatura Precipitaţii Vânt Presiune Umiditate
00:00 +14°C° 0 mm 2 m/s 751 mmHg 68%
01:00 +13°C° 0 mm 2 m/s 751 mmHg 69%
02:00 +13°C° 0 mm 2 m/s 750 mmHg 72%
03:00 +12°C° 0 mm 2 m/s 750 mmHg 75%
04:00 +11°C° 0 mm 1 m/s 750 mmHg 78%
05:00 +12°C° 0 mm 2 m/s 750 mmHg 78%
06:00 +12°C° 0 mm 2 m/s 750 mmHg 77%
07:00 +13°C° 0 mm 2 m/s 751 mmHg 76%
08:00 +14°C° 0 mm 2 m/s 751 mmHg 73%
09:00 +15°C° 0 mm 2 m/s 751 mmHg 70%
10:00 +16°C° 0 mm 2 m/s 751 mmHg 67%
11:00 +17°C° 0 mm 2 m/s 751 mmHg 64%
12:00 +19°C° 0 mm 2 m/s 751 mmHg 61%
13:00 +20°C° 0 mm 2 m/s 751 mmHg 57%
14:00 +19°C° 0.1 mm 2 m/s 751 mmHg 61%
15:00 +19°C° 0.1 mm 3 m/s 751 mmHg 65%
16:00 +19°C° 0.1 mm 3 m/s 751 mmHg 69%
17:00 +17°C° 0.2 mm 3 m/s 751 mmHg 74%
18:00 +16°C° 0.2 mm 2 m/s 751 mmHg 79%
19:00 +15°C° 0.2 mm 2 m/s 751 mmHg 85%
20:00 +15°C° 0 mm 2 m/s 751 mmHg 85%
21:00 +15°C° 0 mm 2 m/s 751 mmHg 85%
22:00 +15°C° 0 mm 2 m/s 751 mmHg 85%
23:00 +15°C° 0 mm 2 m/s 751 mmHg 85%

30 Septembrie, Miercuri

Timp Temperatura Precipitaţii Vânt Presiune Umiditate
00:00 +15°C° 0 mm 2 m/s 751 mmHg 85%
01:00 +14°C° 0 mm 2 m/s 751 mmHg 85%
02:00 +14°C° 0 mm 2 m/s 751 mmHg 85%
03:00 +14°C° 0 mm 2 m/s 751 mmHg 86%
04:00 +14°C° 0 mm 2 m/s 751 mmHg 87%
05:00 +13°C° 0 mm 2 m/s 751 mmHg 87%
06:00 +13°C° 0 mm 2 m/s 750 mmHg 86%
07:00 +13°C° 0 mm 2 m/s 750 mmHg 86%
08:00 +14°C° 0 mm 3 m/s 750 mmHg 79%
09:00 +17°C° 0 mm 3 m/s 750 mmHg 72%
10:00 +18°C° 0 mm 3 m/s 750 mmHg 65%
11:00 +19°C° 0 mm 3 m/s 750 mmHg 63%
12:00 +20°C° 0 mm 3 m/s 750 mmHg 60%
13:00 +20°C° 0 mm 4 m/s 749 mmHg 57%
14:00 +20°C° 0 mm 4 m/s 749 mmHg 61%
15:00 +19°C° 0 mm 4 m/s 749 mmHg 65%
16:00 +19°C° 0 mm 4 m/s 748 mmHg 69%
17:00 +18°C° 0 mm 3 m/s 748 mmHg 75%
18:00 +16°C° 0 mm 3 m/s 748 mmHg 81%
19:00 +14°C° 0 mm 3 m/s 748 mmHg 87%
20:00 +14°C° 0 mm 3 m/s 748 mmHg 89%
21:00 +13°C° 0 mm 3 m/s 748 mmHg 91%
22:00 +14°C° 0 mm 2 m/s 748 mmHg 92%
23:00 +14°C° 0 mm 2 m/s 748 mmHg 91%

1 Octombrie, Joi

Timp Temperatura Precipitaţii Vânt Presiune Umiditate
00:00 +14°C° 0 mm 2 m/s 747 mmHg 89%
01:00 +14°C° 0 mm 2 m/s 747 mmHg 88%
02:00 +13°C° 0 mm 2 m/s 747 mmHg 87%
03:00 +13°C° 0 mm 2 m/s 747 mmHg 86%
04:00 +13°C° 0 mm 2 m/s 747 mmHg 85%
05:00 +13°C° 0 mm 2 m/s 746 mmHg 82%
06:00 +13°C° 0 mm 2 m/s 746 mmHg 80%
07:00 +14°C° 0 mm 2 m/s 746 mmHg 78%
08:00 +14°C° 0 mm 2 m/s 746 mmHg 75%
09:00 +15°C° 0 mm 2 m/s 746 mmHg 71%
10:00 +15°C° 0 mm 2 m/s 746 mmHg 68%
11:00 +16°C° 0 mm 2 m/s 745 mmHg 65%
12:00 +17°C° 0 mm 2 m/s 745 mmHg 62%
13:00 +18°C° 0 mm 3 m/s 745 mmHg 60%
14:00 +17°C° 0 mm 3 m/s 745 mmHg 63%
15:00 +16°C° 0 mm 3 m/s 744 mmHg 66%
16:00 +14°C° 0 mm 3 m/s 744 mmHg 69%
17:00 +14°C° 0.1 mm 3 m/s 744 mmHg 73%
18:00 +13°C° 0.1 mm 3 m/s 744 mmHg 77%
19:00 +13°C° 0.1 mm 4 m/s 744 mmHg 82%
20:00 +12°C° 0.2 mm 4 m/s 744 mmHg 84%
21:00 +12°C° 0.2 mm 3 m/s 744 mmHg 86%
22:00 +11°C° 0.2 mm 3 m/s 743 mmHg 88%
23:00 +11°C° 0.2 mm 3 m/s 743 mmHg 88%
Arată mai mult